Regional Weather Roundup
Issued by NWS

Home | Current Version | Previous Version | Text Only | Print | Product List | Glossary Off
Versions: 1 2 3 4 5 6 7 8 9 10 11 12 13 14 15 16 17 18 19 20 21 22 23 24 25 26 27 28 29 30 31 32 33 34 35 36 37 38 39 40 41 42 43 44 45 46 47 48 49 50

000
ASUS45 KPSR 220300
RWRAZ

PRELIMINARY ARIZONA REGIONAL HOURLY WEATHER ROUNDUP
NATIONAL WEATHER SERVICE PHOENIX AZ
800 PM MST SUN DEC 21 2014

NOTE: FAIR INDICATES FEW OR NO CLOUDS BELOW 12,000 FEET WITH NO
SIGNIFICANT WEATHER AND/OR OBSTRUCTIONS TO VISIBILITY.

AZZ001>003-036-220400-
NORTHWEST ARIZONA

CITY           SKY/WX    TMP DP  RH WIND       PRES   REMARKS
KINGMAN        CLOUDY    40  35  83 SE3       30.09F
$$

AZZ004>008-015-016-018-220400-
NORTH CENTRAL ARIZONA

CITY           SKY/WX    TMP DP  RH WIND       PRES   REMARKS
GRAND CANYON   CLOUDY    41  33  73 VRB3      30.10F
PRESCOTT       MOCLDY    46  32  58 NW3       30.10R
FLAGSTAFF      NOT AVBL
PAYSON         CLOUDY    45  36  70 SW7       30.10S
PAGE           CLOUDY    42  32  67 NW7       30.00F
$$

AZZ009>014-017-220400-
NORTHEAST ARIZONA

CITY           SKY/WX    TMP DP  RH WIND       PRES   REMARKS
WINSLOW        CLOUDY    38  34  85 S6        30.06S WCI  33
SAINT JOHNS    CLOUDY    38  30  73 E5        30.07R WCI  34
WINDOW ROCK    CLEAR     38  29  70 S6        30.03F WCI  33
$$

AZZ023-220400-
GREATER PHOENIX AREA

CITY           SKY/WX    TMP DP  RH WIND       PRES   REMARKS
PHOENIX        MOCLDY    57  43  59 CALM      30.04R
LUKE AFB       PTCLDY    52  44  76 NW7       30.05R
DEER VALLEY    PTCLDY    53  41  63 N3        30.05R
SCOTTSDALE     PTCLDY    55  41  59 N5        30.07R
MESA-GATEWAY   CLEAR     52  43  71 CALM      30.06S
CHANDLER       PTCLDY    52  43  71 CALM      30.04S
$$

AZZ027-028-220400-
SOUTHWEST MARICOPA COUNTY AND PINAL COUNTY

CITY           SKY/WX    TMP DP  RH WIND       PRES   REMARKS
CASA GRANDE    PTCLDY    50  41  71 MISG      30.05S
GILA BEND      FAIR      51  44  77 S6        30.05S
$$

AZZ503-504-507>509-220400-
SOUTHEAST ARIZONA

CITY           SKY/WX    TMP DP  RH WIND       PRES   REMARKS
TUCSON         CLOUDY    53  36  52 CALM      30.09S
RYAN FIELD       N/A     54  45  71 SW5       30.08F
NOGALES        PTCLDY    46  34  62 CALM      30.07S
SIERRA VISTA   MOCLDY    47  34  60 W12       30.08S
DOUGLAS        CLEAR     47  33  58 NW13      30.07R
SAFFORD        MOCLDY    50  35  56 NW13      30.01S
$$

AZZ020-021-025-026-031-220400-
SOUTHWEST ARIZONA

CITY           SKY/WX    TMP DP  RH WIND       PRES   REMARKS
YUMA           NOT AVBL
$$

CAZ031-033-041-043-047-048-061-220400-
SOUTHERN CALIFORNIA

CITY           SKY/WX    TMP DP  RH WIND       PRES   REMARKS
DOWNTOWN L.A.  CLOUDY    60  54  80 CALM      30.04S
L.A. AIRPORT   CLOUDY    60  56  86 SE6       30.04S
SAN DIEGO      PTCLDY    62  55  77 CALM      30.07S
BURBANK        CLOUDY    62  50  64 CALM      30.04S
ONTARIO        MOCLDY    58  49  72 CALM      30.06R
RIVERSIDE      MOCLDY    58  49  72 E3        30.07R
PALM SPRINGS   CLOUDY    61  47  59 CALM      30.08R
EL CENTRO NAS  CLOUDY    60  46  59 CALM      30.04F
IMPERIAL       CLOUDY    59  47  64 CALM      30.04S
BLYTHE         MOCLDY    55  49  80 CALM      30.06R
NEEDLES        CLOUDY    54  41  61 W5        30.07S
$$

NVZ020-UTZ003-220400-
SOUTHERN NEVADA-UTAH

CITY           SKY/WX    TMP DP  RH WIND       PRES   REMARKS
LAS VEGAS      CLOUDY    52  39  61 S8        30.05R
SALT LAKE CITY CLOUDY    46  41  82 N13       29.98R
$$

NMZ009-TXZ055-220400-
NEW MEXICO-WEST TEXAS

CITY           SKY/WX    TMP DP  RH WIND       PRES   REMARKS
ALBUQUERQUE    PTCLDY    42  29  59 CALM      29.95R
EL PASO        PTCLDY    59  26  28 W22G38    29.90F
$$


........................KEY........................
SKY/WX - SKY CONDITION/WEATHER
TMP    - TEMPERATURE IN FAHRENHEIT
DP     - DEW POINT IN FAHRENHEIT
RH     - RELATIVE HUMIDITY IN PERCENT
WIND   - DIRECTION AND SPEED IN MILES PER HOUR (MPH)
VRB    - VARIABLE WIND DIRECTION
PRES   - MEAN SEA LEVEL PRESSURE IN INCHES OF MERCURY
         F - FALLING PRESSURE   R - RISING PRESSURE
         S - STEADY PRESSURE
VSB    - VISIBILITY IN MILES
HX     - HEAT INDEX IN FAHRENHEIT
WCI    - WIND CHILL INDEX IN FAHRENHEIT
TC     - TEMPERATURE IN CELSIUS WHICH IS ALSO KNOWN AS
         TEMPERATURE IN CENTIGRADE
AFB    - AIR FORCE BASE
         LUKE AFB IS LUKE AIR FORCE BASE
         DAVIS-MONTHAN IS DAVIS-MONTHAN AIR FORCE BASE
NAS    - NAVAL AIR STATION
         EL CENTRO NAS IS EL CENTRO NAVAL AIR STATION
N/A    - NOT AVAILABLE


USA.gov is the U.S. government's official web portal to all federal, state and local government web resources and services.